Location: Sternwarte-Kraichtal
(49.1689°N, 8.6996°E)
Time: 19:16:34
(UTC+02:00)

Vanguard 2 Rocket - Pass Details

Date: 01 June 2022
Orbit: 553 x 3323 km, 32.9° (Epoch: 02 July)

Event Time Altitude Azimuth Distance (km) Brightness Sun altitude
Rises 16:54:10 0° 266° (W) 7,298 12.4 40.6°
Reaches altitude 10° 16:59:49 10° 259° (W) 6,159 12.4 39.7°
Maximum altitude 17:15:43 37° 202° (SSW) 3,547 10.7 37.2°
Drops below altitude 10° 17:26:41 10° 141° (SE) 4,256 10.1 35.4°
Sets 17:29:47 0° 133° (SE) 4,903 10.3 34.9°
